Location: Cañada de la Miga
(34.7595°N, 106.2317°W)
Time: 19:34:23
(UTC+00:00)

ISS - Visible Passes

Search period start: 19 October 2021 00:00
Search period end: 29 October 2021 00:00
Orbit: 417 x 423 km, 51.6° (Epoch: 19 October)

Date Brightness Start Highest point End Pass type
(mag) Time Alt. Az. Time Alt. Az. Time Alt. Az.
19 Oct -0.4 11:54:48 10° SE 11:55:40 11° SE 11:56:32 10° ESE visible
20 Oct -3.5 12:41:33 10° SW 12:44:54 74° SE 12:48:16 10° NE visible
21 Oct -2.4 11:55:03 13° SSW 11:57:45 37° SE 12:00:54 10° ENE visible
22 Oct -1.3 11:10:49 20° SE 11:10:49 20° SE 11:13:14 10° E visible
22 Oct -2.8 12:44:16 10° WSW 12:47:19 32° NW 12:50:24 10° NNE visible
23 Oct -3.7 11:59:23 45° W 12:00:02 56° NW 12:03:22 10° NE visible
24 Oct -1.5 11:14:41 24° NE 11:14:41 24° NE 11:16:10 10° NE visible
24 Oct -1.6 12:48:08 10° WNW 12:49:58 14° NNW 12:51:49 10° N visible
25 Oct -2.0 12:02:50 20° NNW 12:02:50 20° NNW 12:05:07 10° NNE visible
26 Oct -0.9 11:17:50 12° NNE 11:17:50 12° NNE 11:18:13 10° NNE visible
